Weather History for Newcastle, WY

Change the Weather History Date:

Monday, January 6, 2014

  Actual Average (KCUT) Record (KCUT)
Temperature  
Mean Temperature 2 °F 24 °F  
Max Temperature 24 °F 35 °F 62 °F (1954)
Min Temperature -20 °F 13 °F -17 °F (1971)
Degree Days  
Heating Degree Days 64 41  
Month to date heating degree days 246  
Since 1 July heating degree days 3716  
Moisture  
Dew Point -8 °F    
Average Humidity 60    
Maximum Humidity 85    
Minimum Humidity 45    
Precipitation  
Precipitation 0.00 in 0.01 in 0.28 in (1982)
Month to date precipitation 0.06  
Year to date precipitation 0.06  
Sea Level Pressure  
Sea Level Pressure 30.14 in    
Wind  
Wind Speed 7 mph (NNW)    
Max Wind Speed 15 mph    
Max Gust Speed -    
Visibility 10 miles    
Events      
T = Trace of Precipitation, MM = Missing Value Source: NWS Daily Summary

Daily Weather History Graph

Daily Weather History Graph

Search for Another Location

Airport:

Trip Planner

Search our weather history database for the weather conditions in past years. The results will help you decide how hot, cold, wet, or windy it might be!

Date:

Astronomy

Jan. 06, 2014 Rise Set
Actual Time 7:31 AM MST 4:35 PM MST
Civil Twilight 6:58 AM MST 5:07 PM MST
Nautical Twilight 6:22 AM MST 5:43 PM MST
Astronomical Twilight 5:47 AM MST 6:18 PM MST
Moon 10:35 AM MST (1/6) 11:25 PM MST (1/6)
Length of Visible Light 10h 09m
Length of Day
9h 03m
Waxing Crescent, 35% of the Moon is Illuminated
Jan 6
Waxing Crescent
Jan 7
First Quarter
Jan 15
Full
Jan 23
Last Quarter
Jan 30
New

Hourly Weather History & Observations

Time (MST) Temp. Windchill Dew Point Humidity Pressure Visibility Wind Dir Wind Speed Gust Speed Precip Events Conditions
12:15 AM -16.6 °F -34.4 °F -23.8 °F 70% 30.28 in 10.0 mi North 8.1 mph - N/A   Clear
12:35 AM -14.8 °F -34.6 °F -23.8 °F 64% 30.28 in 10.0 mi North 10.4 mph - N/A   Clear
12:55 AM -13.0 °F -30.0 °F -23.8 °F 59% 30.27 in 10.0 mi North 8.1 mph - N/A   Clear
1:15 AM -13.0 °F -31.3 °F -23.8 °F 59% 30.27 in 10.0 mi North 9.2 mph - N/A   Clear
1:35 AM -14.8 °F -29.1 °F -23.8 °F 64% 30.27 in 10.0 mi NNW 5.8 mph - N/A   Clear
1:55 AM -14.8 °F -32.2 °F -23.8 °F 64% 30.27 in 10.0 mi North 8.1 mph - N/A   Clear
2:15 AM -14.8 °F -30.8 °F -23.8 °F 64% 30.26 in 10.0 mi North 6.9 mph - N/A   Clear
2:35 AM -18.4 °F - -25.6 °F 70% 30.26 in 10.0 mi Calm Calm - N/A   Clear
2:55 AM -18.4 °F - -25.6 °F 70% 30.26 in 10.0 mi Calm Calm - N/A   Clear
3:15 AM -18.4 °F -28.9 °F -25.6 °F 70% 30.27 in 10.0 mi WNW 3.5 mph - N/A   Clear
3:35 AM -20.2 °F -33.5 °F -25.6 °F 76% 30.27 in 10.0 mi NW 4.6 mph - N/A   Clear
3:55 AM -18.4 °F -35.1 °F -25.6 °F 70% 30.26 in 10.0 mi NNW 6.9 mph - N/A   Clear
4:15 AM -14.8 °F -24.8 °F -23.8 °F 64% 30.26 in 10.0 mi NW 3.5 mph - N/A   Clear
4:35 AM -14.8 °F -29.1 °F -23.8 °F 64% 30.25 in 10.0 mi West 5.8 mph - N/A   Clear
4:55 AM -16.6 °F -35.7 °F -23.8 °F 70% 30.25 in 10.0 mi West 9.2 mph - N/A   Clear
5:15 AM -16.6 °F -26.8 °F -23.8 °F 70% 30.25 in 10.0 mi West 3.5 mph - N/A   Clear
5:35 AM -16.6 °F -26.8 °F -23.8 °F 70% 30.24 in 10.0 mi West 3.5 mph - N/A   Clear
5:55 AM -14.8 °F -29.1 °F -22.0 °F 70% 30.24 in 10.0 mi West 5.8 mph - N/A   Clear
6:15 AM -9.4 °F -29.8 °F -18.4 °F 65% 30.23 in 10.0 mi NW 12.7 mph - N/A   Clear
6:35 AM -7.6 °F -23.4 °F -18.4 °F 59% 30.24 in 10.0 mi WNW 8.1 mph - N/A   Clear
6:55 AM -13.0 °F -30.0 °F -20.2 °F 70% 30.24 in 10.0 mi West 8.1 mph - N/A   Clear
7:15 AM -14.8 °F -30.8 °F -22.0 °F 70% 30.23 in 10.0 mi West 6.9 mph - N/A   Clear
7:35 AM -9.4 °F -24.3 °F -18.4 °F 65% 30.23 in 10.0 mi WNW 6.9 mph - N/A   Clear
7:55 AM -7.6 °F -20.6 °F -16.6 °F 65% 30.23 in 10.0 mi NW 5.8 mph - N/A   Clear
8:15 AM -5.8 °F -21.2 °F -16.6 °F 60% 30.23 in 10.0 mi NW 8.1 mph - N/A   Clear
8:35 AM -4.0 °F -20.2 °F -16.6 °F 55% 30.24 in 10.0 mi NNW 9.2 mph - N/A   Clear
8:55 AM -2.2 °F -18.9 °F -16.6 °F 50% 30.25 in 10.0 mi NNW 10.4 mph - N/A   Clear
9:15 AM -0.4 °F -14.7 °F -16.6 °F 46% 30.25 in 10.0 mi NNW 8.1 mph - N/A   Clear
9:35 AM 1.4 °F -13.5 °F -14.8 °F 47% 30.25 in 10.0 mi NNW 9.2 mph - N/A   Clear
9:55 AM 1.4 °F -13.5 °F -13.0 °F 51% 30.24 in 10.0 mi NW 9.2 mph - N/A   Clear
10:15 AM 3.2 °F -13.1 °F -13.0 °F 47% 30.24 in 10.0 mi NW 11.5 mph - N/A   Clear
10:35 AM 3.2 °F -13.1 °F -11.2 °F 51% 30.22 in 10.0 mi NNW 11.5 mph - N/A   Clear
10:55 AM 5.0 °F -11.6 °F -9.4 °F 52% 30.20 in 10.0 mi North 12.7 mph - N/A   Clear
11:15 AM 8.6 °F -7.0 °F -7.6 °F 48% 30.19 in 10.0 mi NNW 12.7 mph - N/A   Clear
11:35 AM 8.6 °F -7.7 °F -7.6 °F 48% 30.19 in 10.0 mi NNW 13.8 mph - N/A   Clear
11:55 AM 10.4 °F -4.1 °F -5.8 °F 48% 30.17 in 10.0 mi North 11.5 mph - N/A   Clear
12:15 PM 10.4 °F -4.1 °F -5.8 °F 48% 30.16 in 10.0 mi North 11.5 mph - N/A   Clear
12:35 PM 12.2 °F -1.8 °F -4.0 °F 48% 30.14 in 10.0 mi North 11.5 mph - N/A   Clear
12:55 PM 14.0 °F -1.4 °F -4.0 °F 45% 30.14 in 10.0 mi North 15.0 mph - N/A   Clear
1:16 PM 15.8 °F 1.4 °F -2.2 °F 45% 30.12 in 10.0 mi North 13.8 mph - N/A   Clear
1:35 PM 17.6 °F 7.3 °F -0.4 °F 45% 30.10 in 10.0 mi North 8.1 mph - N/A   Clear
1:55 PM 17.6 °F 6.4 °F -0.4 °F 45% 30.10 in 10.0 mi North 9.2 mph - N/A   Mostly Cloudy
2:15 PM 17.6 °F 5.0 °F -0.4 °F 45% 30.10 in 10.0 mi NNW 11.5 mph - N/A   Overcast
2:35 PM 17.6 °F 5.7 °F -0.4 °F 45% 30.10 in 10.0 mi North 10.4 mph - N/A   Scattered Clouds
2:55 PM 17.6 °F 7.3 °F 1.4 °F 49% 30.09 in 10.0 mi North 8.1 mph - N/A   Mostly Cloudy
3:15 PM 17.6 °F 7.3 °F 1.4 °F 49% 30.09 in 10.0 mi North 8.1 mph - N/A   Overcast
3:35 PM 19.4 °F 10.4 °F 1.4 °F 46% 30.09 in 10.0 mi North 6.9 mph - N/A   Overcast
3:55 PM 19.4 °F 11.5 °F 3.2 °F 49% 30.08 in 10.0 mi North 5.8 mph - N/A   Overcast
4:15 PM 19.4 °F 12.8 °F 3.2 °F 49% 30.06 in 10.0 mi North 4.6 mph - N/A   Overcast
4:35 PM 19.4 °F 8.6 °F 5.0 °F 54% 30.06 in 10.0 mi North 9.2 mph - N/A   Overcast
4:55 PM 19.4 °F 8.6 °F 5.0 °F 54% 30.04 in 10.0 mi North 9.2 mph - N/A   Mostly Cloudy
5:15 PM 17.6 °F 7.3 °F 3.2 °F 53% 30.04 in 10.0 mi North 8.1 mph - N/A   Scattered Clouds
5:35 PM 17.6 °F 8.2 °F 5.0 °F 58% 30.03 in 10.0 mi NNW 6.9 mph - N/A   Scattered Clouds
5:55 PM 17.6 °F - 5.0 °F 58% 30.02 in 10.0 mi Calm Calm - N/A   Clear
6:15 PM 17.6 °F - 5.0 °F 58% 30.02 in 10.0 mi Calm Calm - N/A   Clear
6:35 PM 14.0 °F 3.9 °F 5.0 °F 67% 30.02 in 10.0 mi SSE 6.9 mph - N/A   Scattered Clouds
6:55 PM 14.0 °F - 6.8 °F 73% 30.02 in 10.0 mi Calm Calm - N/A   Scattered Clouds
7:15 PM 14.0 °F 5.1 °F 6.8 °F 73% 30.02 in 10.0 mi SE 5.8 mph - N/A   Scattered Clouds
7:35 PM 14.0 °F 5.1 °F 6.8 °F 73% 30.02 in 10.0 mi SSE 5.8 mph - N/A   Scattered Clouds
7:55 PM 14.0 °F 6.5 °F 5.0 °F 67% 30.00 in 10.0 mi SE 4.6 mph - N/A   Scattered Clouds
8:15 PM 14.0 °F - 6.8 °F 73% 30.00 in 10.0 mi Calm Calm - N/A   Scattered Clouds
8:35 PM 15.8 °F 10.2 °F 6.8 °F 68% 29.99 in 10.0 mi NW 3.5 mph - N/A   Clear
8:55 PM 14.0 °F 6.5 °F 8.6 °F 79% 29.98 in 10.0 mi WNW 4.6 mph - N/A   Clear
9:15 PM 14.0 °F 5.1 °F 8.6 °F 79% 29.98 in 10.0 mi North 5.8 mph - N/A   Clear
9:35 PM 17.6 °F 7.3 °F 8.6 °F 68% 29.97 in 10.0 mi North 8.1 mph - N/A   Clear
9:55 PM 12.2 °F 4.3 °F 6.8 °F 79% 29.96 in 10.0 mi NW 4.6 mph - N/A   Clear
10:15 PM 14.0 °F 6.5 °F 8.6 °F 79% 29.95 in 10.0 mi WNW 4.6 mph - N/A   Clear
10:35 PM 12.2 °F 2.9 °F 8.6 °F 85% 29.95 in 10.0 mi NW 5.8 mph - N/A   Clear
10:55 PM 19.4 °F 11.5 °F 10.4 °F 68% 29.94 in 10.0 mi NW 5.8 mph - N/A   Clear
11:15 PM 23.0 °F 13.1 °F 10.4 °F 59% 29.93 in 10.0 mi North 9.2 mph - N/A   Clear
11:35 PM 23.0 °F 11.7 °F 10.4 °F 59% 29.92 in 10.0 mi North 11.5 mph - N/A   Clear
11:55 PM 24.8 °F 17.9 °F 10.4 °F 54% 29.91 in 10.0 mi NNW 5.8 mph - N/A   Clear